{"data":{"norad_id":64679,"intl_designator":"2025-139R","name":"STARLINK-34489","alt_names":[],"object_type":"PAYLOAD","status":"ACTIVE","operator":null,"country":"US","launch_date":"2025-06-28","launch_site_code":"AFETR","launch_vehicle":null,"mission":null,"orbit_class":"UNKNOWN","rcs_meters":null,"size_class":null,"mass_kg":null,"dimensions":null,"purposes":["comms"],"wikipedia_slug":null,"has_3d_model":false,"image_url":null,"decayed_at":null,"tle_current":{"epoch":"2026-09-20T18:56:40.488000Z","epoch_age_seconds":106572,"freshness":"FRESH","line1":"1 64679U 25139R   26263.78935750  .00009289  00000+0  28555-3 0  9990","line2":"2 64679  53.1585 296.6430 0001313  83.3388 276.7764 15.34418115 70214","mean_motion":15.34418115,"eccentricity":0.0001313,"inclination_deg":53.1585,"raan_deg":296.643,"arg_perigee_deg":83.3388,"mean_anomaly_deg":276.7764,"bstar":0.00028555,"rev_number":7021,"period_min":93.846650135514,"perigee_km":461.75120388504,"apogee_km":463.54759439345,"semimajor_km":6840.7863991392,"source":"CELESTRAK","updated_at":"2026-09-21T09:00:35.400026Z"}}}